contacte
inicio
- ACTUALIZADO a las 20:03
Cámara en vivo
A 5 metros de altura
Dirección Noreste
Datos del día de Hoy
Parameter                   Max   Max Time        Min   Min Time    Average
Wind Direction              360       8:19          0       5:00         22
Wind Speed                   21      17:06          0       0:00          2
Wind Gust                    23      17:06          0       1:00         10
In Humidity                  49       3:30         36      17:12         44
Humidity                     74       4:00         28      17:46         53
In Temp                    35.4      19:21       31.8       7:00       33.6
Out Temp                   38.2      17:32       22.2       7:00       29.1
Raw Barometer           1010.44      11:36    1007.23      18:57    1009.07
Total Rain               272.80       0:00     272.80       0:00     272.80




24/4/20
Time         Wind Dir   Wind Spd  Wind Gust     Hum In   Humidity    Temp In       Temp  Raw Barom   Tot Rain
                    °      km/hr      km/hr          %          %         °C         °C         mb         mm
0:00              253          2          5         59         76       23.6       17.2    1011.76     202.20
0:20              261          0          3         59         76       23.6       16.8    1011.76     202.20
0:40              276          0          2         59         77       23.5       16.4    1011.79     202.20
1:00              277          0          2         59         78       23.5       16.2    1011.89     202.20
1:20              277          0          2         59         78       23.5       16.1    1011.72     202.20
1:40              279          0          3         58         78       23.4       15.9    1011.69     202.20
2:00              285          0          3         58         80       23.4       15.4    1011.72     202.20
2:20              285          2          2         58         80       23.4       15.2    1011.69     202.20
2:40              302          0          3         58         79       23.2       14.9    1011.42     202.20
3:00              302          0          3         58         79       23.3       14.9    1011.39     202.20
3:20              302          0          3         58         80       23.2       14.7    1011.35     202.20
3:40              313          0          3         58         80       23.1       14.5    1011.18     202.20
4:00              334          3          3         58         79       23.1       14.4    1010.95     202.20
4:20              355          6          6         58         78       22.9       14.7    1010.71     202.20
4:40              355          2          6         57         78       22.8       14.6    1010.54     202.20
5:00              355          3          8         57         78       22.8       14.6    1010.37     202.20
5:20              355          2          6         57         79       22.8       14.6    1010.41     202.20
5:40              355          0          3         57         81       22.7       14.2    1010.17     202.20
6:00              355          0          6         57         82       22.6       13.9    1010.03     202.20
6:20              355          0          3         57         82       22.6       13.8    1009.93     202.20
6:40              360          2          3         57         82       22.4       13.9    1009.87     202.20
7:00               17          2          5         57         81       22.4       13.9    1009.87     202.20
7:20                5          3          6         57         81       22.4       13.8    1009.76     202.20
7:40               17          3          5         57         81       22.3       13.7    1009.73     202.20
8:00                9          3          6         57         82       22.1       13.5    1009.80     202.20
8:20               28          2          8         56         82       21.9       13.6    1009.73     202.20
8:40               29          3          5         55         82       21.7       13.7    1009.70     202.20
9:00               32          2          5         56         82       21.5       14.3    1009.76     202.20
9:20               63          2          5         57         79       21.5       15.3    1009.90     202.20
9:40               65          3          6         56         74       22.1       16.4    1009.80     202.20
10:00              68          3          8         55         71       22.4       17.1    1009.80     202.20
10:20              90          2          6         55         71       22.7       17.8    1009.97     202.20
10:40              75          5         13         54         68       22.9       18.4    1009.80     202.20
11:00              49          2         13         54         65       23.3       18.8    1009.97     202.20
11:20              64          2          8         53         64       23.3       19.0    1009.90     202.20
11:40              84          2          6         53         63       23.3       19.3    1009.80     202.20
12:00              84          2          6         53         64       23.2       19.4    1009.63     202.20
12:20              96          3          6         54         64       23.1       19.8    1009.49     202.20
12:40              72          0          3         55         63       23.1       20.1    1009.56     202.20
13:00              77          0          5         55         61       23.2       20.7    1009.09     202.20
13:20             311          6         10         53         56       23.5       21.8    1008.82     202.20
13:40              46          0          6         52         54       23.7       22.3    1008.51     202.20
14:00              12          3          6         51         51       23.9       22.6    1008.34     202.20
14:20              38          5          5         51         51       23.9       23.1    1008.18     202.20
14:40              71          2          6         51         49       24.0       23.6    1007.97     202.20
15:00              70          0          6         51         48       24.2       23.8    1007.77     202.20
15:20              67          0          3         52         48       24.3       24.3    1007.80     202.20
15:40             334          0          3         51         47       24.4       24.8    1007.80     202.20
16:00             355          0          6         51         47       24.7       25.3    1007.63     202.20
16:20             196          0          6         52         48       24.9       24.8    1007.53     202.20
16:40             164          2          6         53         47       25.0       24.7    1007.30     202.20
17:00             195          0          8         52         47       25.1       24.6    1006.96     202.20
17:20             165          2          6         51         49       25.2       24.6    1006.52     202.20
17:40             164          0          3         51         53       25.1       24.2    1006.28     202.20
18:00             206          0          3         50         50       25.0       24.2    1006.08     202.20
18:20             272          0          3         50         52       25.0       23.9    1006.05     202.20
18:40             295          2          3         50         52       25.0       23.9    1005.81     202.20
19:00             296          0          3         51         50       24.9       23.9    1005.98     202.20
19:20             294          0          2         52         58       24.9       23.6    1005.78     202.20
19:40             217          2          5         53         55       25.0       23.5    1005.94     202.20
20:00             214          2          5         53         59       25.1       22.8    1005.84     202.20
20:20             205          2          3         54         62       25.1       22.4    1005.98     202.20
20:40             215          2          5         55         67       25.1       21.6    1006.01     202.20
0:00              225          0         16         45         65       33.2       25.6    1008.75     272.80
0:20              228          0         14         46         67       33.2       25.2    1008.65     272.80
0:40              219          3         13         46         69       33.1       24.9    1008.89     272.80
1:00              244          0         13         47         70       33.1       24.6    1008.95     272.80
1:20              236          2         11         47         71       33.1       24.5    1009.09     272.80
1:40              254          5          8         48         71       33.0       24.3    1009.02     272.80
2:00              242          3         11         48         72       32.8       24.2    1009.12     272.80
2:20              270          6         10         48         73       32.8       24.2    1009.16     272.80
2:40              279          2          8         48         73       32.8       24.1    1009.09     272.80
3:00              270          2          8         48         73       32.7       24.0    1009.19     272.80
4:00              292          0          3         49         74       32.6       23.4    1009.12     272.80
5:00                0          0          6         49         74       32.3       23.0    1009.09     272.80
6:00                0          0          6         49         73       32.0       22.7    1009.05     272.80
7:00                0          0          6         49         74       31.8       22.2    1009.12     272.80
8:20              360          0          6         49         71       31.9       23.1    1009.39     272.80
8:40                5          0          3         48         69       32.1       23.8    1009.56     272.80
9:00                9          0          6         47         66       32.5       24.8    1009.87     272.80
9:20               34          3         10         47         63       32.8       25.6    1009.90     272.80
9:40               24          6         13         46         61       33.2       26.1    1009.93     272.80
10:00              47          0         13         45         60       33.4       26.7    1009.90     272.80
10:20              53          5         10         45         58       33.8       27.3    1010.07     272.80
10:40              82          5         11         44         54       33.9       27.8    1010.20     272.80
11:00              32          2         11         43         52       34.2       28.4    1010.37     272.80
11:20              40          0         11         43         49       34.3       29.1    1010.34     272.80
11:40              94          2          6         42         46       34.3       29.8    1010.37     272.80
12:00              87          3          8         42         44       34.4       30.6    1010.34     272.80
12:20             122          0          8         42         42       34.4       31.2    1010.27     272.80
12:40              38          0          3         41         40       34.4       31.7    1010.24     272.80
13:00             348          0          5         41         39       34.3       32.5    1010.07     272.80
13:20              52          0          6         40         35       34.4       33.1    1010.10     272.80
13:40             341          0          3         40         34       34.3       33.8    1009.93     272.80
14:00              94          6         10         39         33       34.3       34.1    1009.83     272.80
14:20              62          3         14         40         33       34.2       34.4    1009.66     272.80
14:40              71          0         11         39         32       34.2       34.8    1009.36     272.80
15:00             346          0         11         39         32       34.2       35.2    1009.22     272.80
15:20               9          3         13         38         31       34.2       35.8    1009.09     272.80
15:40             290          0          8         38         32       34.2       36.1    1008.82     272.80
16:00             101          2          8         39         31       34.3       36.6    1008.61     272.80
16:20             321          6          8         39         31       34.3       36.8    1008.48     272.80
16:40               5          2          3         38         32       34.3       37.4    1008.24     272.80
17:00              95          0         18         38         30       34.4       37.3    1008.07     272.80
17:20             305          3         21         36         29       34.8       37.6    1007.84     272.80
17:40             214          0          6         36         29       34.8       38.0    1007.70     272.80
18:00             233          3         11         36         30       34.9       37.7    1007.60     272.80
18:20             173          3         21         37         32       35.2       37.6    1007.50     272.80
18:40             144          3         11         38         33       35.2       36.8    1007.43     272.80
19:00             171          8         14         38         33       35.3       36.9    1007.30     272.80
19:20             179          3         13         38         33       35.3       37.0    1007.30     272.80
19:40             161          0         13         37         34       35.3       36.2    1007.33     272.80
20:00             163          0         13         37         33       35.2       36.3    1007.43     272.80
Miembro de: